Total_Precipitation_Accumulation
0.47 0.52 0.49 0.49 0.50 0.63 0.76 0.85 0.91 1.13 1.28 1.09 0.88 0.83 0.85 0.93 0.86 0.92 0.84 0.76 0.71 0.76 0.94 1.04 0.94 0.86 0.78 0.72 0.69 0.66 0.62 0.56 0.51 0.46 0.49 0.54 0.56 0.57 0.53 0.47 0.41 0.36 0.31
0.69 0.71 0.68 0.70 0.65 0.68 0.81 1.00 1.11 1.41 1.40 1.30 1.02 0.93 0.91 0.93 0.89 0.87 0.85 0.91 0.84 0.76 0.76 0.84 0.90 0.86 0.80 0.75 0.68 0.62 0.57 0.57 0.50 0.39 0.34 0.39 0.44 0.47 0.50 0.52 0.47 0.39 0.33
0.89 0.92 0.83 0.82 0.92 1.03 1.14 1.17 1.28 1.50 1.26 1.26 1.05 1.00 0.94 0.83 0.73 0.70 0.78 0.84 0.81 0.72 0.72 0.76 0.78 0.76 0.78 0.80 0.78 0.71 0.58 0.51 0.45 0.39 0.34 0.34 0.36 0.36 0.37 0.42 0.45 0.41 0.34
1.05 1.19 1.08 1.02 1.35 1.40 1.40 1.51 1.60 1.58 1.45 1.40 1.22 1.01 0.89 0.85 0.69 0.61 0.58 0.62 0.70 0.62 0.69 0.73 0.70 0.66 0.73 0.85 0.94 0.97 0.80 0.62 0.50 0.44 0.39 0.39 0.41 0.38 0.32 0.31 0.34 0.31 0.27
1.28 1.48 1.40 1.46 1.71 1.72 1.66 1.60 1.80 1.75 1.55 1.49 1.36 1.08 0.80 0.70 0.59 0.49 0.44 0.41 0.47 0.51 0.53 0.55 0.53 0.56 0.71 0.95 1.06 1.04 0.95 0.79 0.61 0.52 0.50 0.49 0.54 0.47 0.32 0.26 0.28 0.28 0.24
1.51 1.76 1.60 1.61 1.81 1.87 1.78 1.70 1.61 1.63 1.44 1.40 1.32 1.04 0.74 0.52 0.46 0.39 0.33 0.30 0.29 0.28 0.33 0.42 0.48 0.42 0.53 0.77 0.86 0.97 1.06 0.95 0.75 0.64 0.64 0.66 0.71 0.63 0.38 0.27 0.26 0.27 0.27
1.49 1.74 1.65 1.73 1.78 1.71 1.63 1.65 1.61 1.45 1.17 1.32 1.33 0.97 0.60 0.46 0.41 0.29 0.26 0.24 0.21 0.21 0.23 0.32 0.42 0.45 0.47 0.51 0.67 0.78 0.92 0.94 0.80 0.70 0.70 0.72 0.82 0.82 0.54 0.39 0.35 0.28 0.31
1.56 1.64 1.66 1.67 1.69 1.66 1.48 1.40 1.46 1.27 1.03 1.16 1.22 1.13 0.66 0.45 0.37 0.29 0.33 0.38 0.35 0.32 0.29 0.33 0.38 0.48 0.54 0.67 0.74 0.58 0.62 0.82 0.91 0.91 0.84 0.71 0.70 0.74 0.66 0.60 0.55 0.48 0.49
1.74 1.73 1.68 1.57 1.42 1.36 1.23 1.21 1.29 1.24 1.06 1.03 1.19 1.30 0.95 0.64 0.56 0.41 0.41 0.41 0.42 0.43 0.40 0.43 0.44 0.53 0.59 0.72 0.86 0.83 0.59 0.67 0.85 1.07 1.06 0.84 0.64 0.61 0.66 0.70 0.73 0.68 0.67
1.54 1.38 1.27 1.23 1.17 1.12 1.01 0.96 1.02 1.02 0.95 0.88 0.96 1.08 1.15 1.14 1.01 0.58 0.37 0.31 0.38 0.43 0.49 0.47 0.42 0.47 0.57 0.71 0.87 1.02 0.80 0.64 0.65 0.88 1.04 0.94 0.76 0.63 0.61 0.70 0.89 0.89 0.73
1.18 1.01 0.93 0.91 0.88 0.88 0.82 0.76 0.76 0.75 0.77 0.77 0.84 0.94 1.04 1.12 1.13 0.98 0.62 0.53 0.54 0.50 0.52 0.50 0.50 0.51 0.53 0.66 0.84 0.87 0.93 0.84 0.75 0.66 0.71 0.81 0.86 0.78 0.77 0.94 1.19 1.33 1.19
0.78 0.67 0.63 0.65 0.70 0.75 0.72 0.69 0.68 0.67 0.70 0.78 0.80 0.86 0.93 0.91 0.94 1.02 0.82 0.69 0.61 0.52 0.54 0.58 0.61 0.66 0.62 0.68 0.71 0.87 0.85 0.69 0.63 0.60 0.56 0.61 0.71 0.78 0.83 1.02 1.35 1.62 1.72
0.61 0.55 0.53 0.55 0.62 0.69 0.65 0.61 0.60 0.68 0.78 0.83 0.81 0.84 0.91 0.90 0.93 1.03 0.98 0.88 0.79 0.72 0.72 0.73 0.62 0.53 0.44 0.50 0.55 0.57 0.49 0.41 0.37 0.37 0.38 0.42 0.49 0.61 0.78 0.97 1.19 1.42 1.60
0.58 0.57 0.52 0.52 0.54 0.58 0.58 0.60 0.60 0.66 0.76 0.81 0.76 0.88 0.95 0.95 1.02 1.14 1.16 1.10 0.97 0.87 0.81 0.75 0.62 0.49 0.44 0.46 0.40 0.34 0.31 0.28 0.21 0.18 0.20 0.22 0.29 0.40 0.59 0.75 0.91 1.06 1.18
0.50 0.56 0.56 0.57 0.58 0.62 0.64 0.70 0.75 0.83 0.96 1.02 1.05 1.12 1.14 1.08 1.05 1.07 1.12 1.12 1.10 0.95 0.80 0.71 0.61 0.52 0.49 0.51 0.43 0.36 0.40 0.27 0.15 0.12 0.12 0.13 0.19 0.30 0.36 0.43 0.55 0.69 0.83
0.41 0.49 0.56 0.57 0.59 0.59 0.63 0.73 0.92 1.08 1.17 1.21 1.24 1.29 1.31 1.26 1.22 1.22 1.15 1.16 1.21 1.09 0.85 0.66 0.61 0.58 0.55 0.45 0.40 0.37 0.32 0.20 0.13 0.11 0.08 0.08 0.12 0.18 0.19 0.22 0.30 0.41 0.54
0.36 0.39 0.45 0.50 0.52 0.55 0.58 0.67 0.80 0.99 1.10 1.12 1.14 1.19 1.19 1.17 1.13 1.09 1.10 1.15 1.20 1.16 0.92 0.70 0.71 0.73 0.69 0.60 0.51 0.42 0.31 0.23 0.17 0.12 0.08 0.07 0.07 0.10 0.13 0.16 0.19 0.23 0.33
0.35 0.36 0.36 0.39 0.40 0.44 0.49 0.59 0.72 0.83 0.92 0.95 0.94 0.93 0.90 0.87 0.86 0.86 0.89 0.93 0.97 1.07 1.01 0.83 0.84 0.85 0.81 0.74 0.69 0.60 0.43 0.27 0.21 0.19 0.13 0.10 0.08 0.08 0.10 0.13 0.18 0.23 0.29
0.27 0.28 0.30 0.34 0.41 0.52 0.60 0.65 0.68 0.71 0.74 0.77 0.83 0.87 0.80 0.75 0.74 0.74 0.74 0.72 0.72 0.85 0.91 0.88 0.84 0.87 0.82 0.76 0.69 0.63 0.57 0.42 0.28 0.23 0.19 0.16 0.13 0.10 0.10 0.11 0.16 0.23 0.30
0.21 0.25 0.30 0.36 0.44 0.52 0.59 0.64 0.64 0.62 0.58 0.55 0.58 0.63 0.65 0.62 0.61 0.63 0.65 0.63 0.63 0.72 0.79 0.83 0.84 0.87 0.86 0.77 0.66 0.61 0.68 0.61 0.49 0.38 0.31 0.26 0.24 0.20 0.16 0.14 0.14 0.18 0.28
0.21 0.26 0.31 0.37 0.41 0.43 0.44 0.40 0.37 0.37 0.36 0.33 0.32 0.36 0.40 0.45 0.48 0.50 0.52 0.60 0.63 0.64 0.65 0.66 0.69 0.76 0.86 0.87 0.74 0.64 0.71 0.73 0.67 0.54 0.44 0.36 0.31 0.27 0.24 0.19 0.16 0.16 0.23
0.21 0.26 0.32 0.37 0.37 0.32 0.36 0.26 0.16 0.15 0.20 0.23 0.27 0.29 0.31 0.31 0.34 0.38 0.40 0.46 0.56 0.58 0.57 0.57 0.59 0.66 0.75 0.82 0.86 0.80 0.76 0.70 0.70 0.68 0.61 0.56 0.47 0.42 0.39 0.33 0.23 0.19 0.19
0.22 0.25 0.26 0.26 0.28 0.31 0.29 0.21 0.12 0.11 0.14 0.17 0.20 0.23 0.22 0.24 0.25 0.25 0.26 0.28 0.32 0.38 0.43 0.49 0.51 0.53 0.56 0.57 0.64 0.68 0.79 0.89 0.92 0.87 0.82 0.88 0.74 0.59 0.52 0.44 0.27 0.18 0.17
0.28 0.28 0.27 0.25 0.30 0.30 0.23 0.18 0.14 0.12 0.17 0.18 0.19 0.19 0.18 0.16 0.17 0.19 0.21 0.20 0.19 0.20 0.24 0.29 0.35 0.44 0.52 0.56 0.57 0.52 0.55 0.71 0.90 0.97 0.92 0.94 0.90 0.82 0.70 0.59 0.41 0.26 0.20
0.35 0.32 0.30 0.31 0.34 0.34 0.26 0.18 0.14 0.17 0.22 0.23 0.22 0.18 0.15 0.13 0.13 0.13 0.18 0.21 0.21 0.20 0.20 0.21 0.24 0.34 0.45 0.49 0.52 0.45 0.36 0.33 0.45 0.57 0.68 0.84 0.88 0.86 0.83 0.72 0.54 0.35 0.23
0.42 0.36 0.33 0.34 0.37 0.42 0.37 0.23 0.17 0.22 0.29 0.30 0.33 0.26 0.18 0.14 0.13 0.11 0.15 0.19 0.20 0.19 0.21 0.22 0.21 0.25 0.30 0.36 0.41 0.38 0.30 0.23 0.21 0.24 0.23 0.35 0.55 0.69 0.83 0.82 0.72 0.58 0.43